Rockwood, MI

8:15 PM EST on February 20, 2017 (GMT -0500)
Grosse Ile Municipal

Weather History for KONZ - March, 2013

Change the Weather History Date:

Thursday, March 7, 2013

  Actual Average (KDTW) Record (KDTW)
Temperature  
Mean Temperature 34 °F -  
Max Temperature 39 °F 41 °F 76 °F (2000)
Min Temperature 28 °F 23 °F 2 °F (1913)
Degree Days  
Heating Degree Days 32    
Moisture  
Dew Point 26 °F    
Average Humidity 72    
Maximum Humidity 87    
Minimum Humidity 56    
Precipitation  
Precipitation 0.00 in - - ()
Sea Level Pressure  
Sea Level Pressure 30.27 in    
Wind  
Wind Speed 4 mph (NW)    
Max Wind Speed 14 mph    
Max Gust Speed -    
Visibility 10 miles    
Events Snow    
Averages and records for this station are not official NWS values.
T = Trace of Precipitation, MM = Missing Value Source: NWS Daily Summary

Daily Weather History Graph

Daily Weather History Graph

Search for Another Location

Airport or City:

Trip Planner

Search our weather history database for the weather conditions in past years. The results will help you decide how hot, cold, wet, or windy it might be!

Date:

Astronomy

Mar. 07, 2013 Rise Set
Actual Time 6:57 AM EST 6:30 PM EST
Civil Twilight 6:29 AM EST 6:58 PM EST
Nautical Twilight 5:57 AM EST 7:30 PM EST
Astronomical Twilight 5:24 AM EST 8:03 PM EST
Moon 4:00 AM EST (3/7) 2:13 PM EST (3/7)
Length of Visible Light 12h 28m
Length of Day
11h 32m
Waning Crescent, 20% of the Moon is Illuminated
Mar 7
Waning Crescent
Mar 11
New
Mar 19
First Quarter
Mar 27
Full
Apr 3
Last Quarter

Hourly Weather History & Observations

Time (EST) Temp. Windchill Dew Point Humidity Pressure Visibility Wind Dir Wind Speed Gust Speed Precip Events Conditions
12:14 AM 33.8 °F - 28.4 °F 81% 30.18 in 10.0 mi Calm Calm - N/A   Overcast
12:34 AM 35.6 °F - 30.2 °F 81% 30.18 in 10.0 mi Calm Calm - N/A   Overcast
12:54 AM 33.8 °F - 30.2 °F 87% 30.18 in 10.0 mi Calm Calm - N/A   Overcast
1:14 AM 35.6 °F 31.7 °F 30.2 °F 81% 30.18 in 10.0 mi NW 4.6 mph - N/A   Overcast
1:34 AM 35.6 °F 31.7 °F 28.4 °F 75% 30.18 in 10.0 mi NW 4.6 mph - N/A   Overcast
1:54 AM 33.8 °F 29.6 °F 28.4 °F 81% 30.19 in 10.0 mi WNW 4.6 mph - N/A   Overcast
2:14 AM 33.8 °F - 28.4 °F 81% 30.19 in 10.0 mi Calm Calm - N/A   Overcast
2:34 AM 33.8 °F - 28.4 °F 81% 30.18 in 10.0 mi Calm Calm - N/A   Overcast
2:54 AM 33.8 °F 30.8 °F 28.4 °F 81% 30.18 in 10.0 mi NW 3.5 mph - N/A   Overcast
3:14 AM 33.8 °F 30.8 °F 28.4 °F 81% 30.19 in 10.0 mi NW 3.5 mph - N/A   Overcast
3:34 AM 33.8 °F - 28.4 °F 81% 30.18 in 10.0 mi Calm Calm - N/A   Overcast
3:54 AM 33.8 °F 28.6 °F 28.4 °F 81% 30.19 in 10.0 mi WNW 5.8 mph - N/A   Overcast
4:14 AM 33.8 °F 30.8 °F 28.4 °F 81% 30.19 in 10.0 mi WNW 3.5 mph - N/A   Overcast
4:34 AM 33.8 °F - 28.4 °F 81% 30.20 in 10.0 mi Calm Calm - N/A   Overcast
4:55 AM 33.8 °F 30.8 °F 28.4 °F 81% 30.20 in 10.0 mi WNW 3.5 mph - N/A   Overcast
5:14 AM 33.8 °F 30.8 °F 28.4 °F 81% 30.21 in 10.0 mi WNW 3.5 mph - N/A   Overcast
5:34 AM 33.8 °F 30.8 °F 28.4 °F 81% 30.21 in 10.0 mi West 3.5 mph - N/A   Overcast
5:54 AM 33.8 °F 30.8 °F 28.4 °F 81% 30.21 in 10.0 mi WNW 3.5 mph - N/A   Overcast
6:14 AM 33.8 °F 29.6 °F 28.4 °F 81% 30.22 in 10.0 mi West 4.6 mph - N/A   Overcast
6:34 AM 33.8 °F 28.6 °F 28.4 °F 81% 30.22 in 10.0 mi WNW 5.8 mph - N/A   Overcast
6:54 AM 33.8 °F 28.6 °F 28.4 °F 81% 30.23 in 10.0 mi WNW 5.8 mph - N/A   Overcast
7:14 AM 32.0 °F 27.5 °F 28.4 °F 87% 30.23 in 10.0 mi WNW 4.6 mph - N/A   Overcast
7:34 AM 32.0 °F - 26.6 °F 80% 30.24 in 10.0 mi Calm Calm - N/A   Mostly Cloudy
7:54 AM 32.0 °F 28.7 °F 28.4 °F 87% 30.25 in 10.0 mi WNW 3.5 mph - N/A   Mostly Cloudy
8:14 AM 33.8 °F 28.6 °F 28.4 °F 81% 30.25 in 10.0 mi NW 5.8 mph - N/A   Overcast
8:34 AM 33.8 °F 27.0 °F 28.4 °F 81% 30.26 in 10.0 mi NNW 8.1 mph - N/A   Overcast
8:54 AM 35.6 °F 28.6 °F 28.4 °F 75% 30.27 in 10.0 mi NNW 9.2 mph - N/A   Overcast
9:14 AM 35.6 °F 29.2 °F 28.4 °F 75% 30.27 in 10.0 mi NNW 8.1 mph - N/A   Mostly Cloudy
9:34 AM 35.6 °F 29.9 °F 30.2 °F 81% 30.27 in 10.0 mi North 6.9 mph - N/A   Scattered Clouds
9:54 AM 37.4 °F 32.8 °F 30.2 °F 75% 30.28 in 10.0 mi North 5.8 mph - N/A   Overcast
10:14 AM 37.4 °F 30.8 °F 30.2 °F 75% 30.28 in 10.0 mi NNW 9.2 mph - N/A   Overcast
10:34 AM 37.4 °F 30.8 °F 30.2 °F 75% 30.29 in 10.0 mi NNW 9.2 mph - N/A   Overcast
10:54 AM 37.4 °F 32.1 °F 30.2 °F 75% 30.29 in 10.0 mi NNW 6.9 mph - N/A   Overcast
11:15 AM 37.4 °F 32.1 °F 30.2 °F 75% 30.29 in 10.0 mi NW 6.9 mph - N/A   Overcast
11:34 AM 35.6 °F 28.0 °F 30.2 °F 81% 30.29 in 4.0 mi NW 10.4 mph - N/A Snow Light Snow
11:54 AM 35.6 °F 29.9 °F 30.2 °F 81% 30.30 in 7.0 mi NNW 6.9 mph - N/A Snow Light Snow
12:14 PM 37.4 °F 32.1 °F 32.0 °F 81% 30.29 in 7.0 mi NNW 6.9 mph - N/A Snow Light Snow
12:34 PM 37.4 °F 30.8 °F 30.2 °F 75% 30.29 in 10.0 mi North 9.2 mph - N/A   Overcast
12:54 PM 39.2 °F 33.6 °F 30.2 °F 70% 30.29 in 10.0 mi NNW 8.1 mph - N/A   Overcast
1:14 PM 37.4 °F 30.3 °F 28.4 °F 70% 30.29 in 10.0 mi NNW 10.4 mph - N/A   Overcast
1:34 PM 37.4 °F 30.3 °F 28.4 °F 70% 30.29 in 10.0 mi North 10.4 mph - N/A   Overcast
1:54 PM 39.2 °F 33.6 °F 26.6 °F 61% 30.29 in 10.0 mi North 8.1 mph - N/A   Overcast
2:14 PM 39.2 °F 34.2 °F 26.6 °F 61% 30.28 in 10.0 mi NW 6.9 mph - N/A   Overcast
2:34 PM 37.4 °F 32.8 °F 26.6 °F 65% 30.28 in 10.0 mi NNW 5.8 mph - N/A   Overcast
2:54 PM 37.4 °F 30.8 °F 26.6 °F 65% 30.29 in 10.0 mi NW 9.2 mph - N/A   Overcast
3:14 PM 37.4 °F 29.8 °F 26.6 °F 65% 30.30 in 10.0 mi NW 11.5 mph - N/A   Overcast
3:34 PM 37.4 °F 30.3 °F 26.6 °F 65% 30.30 in 10.0 mi NW 10.4 mph - N/A   Overcast
3:53 PM 37.4 °F 28.9 °F 24.8 °F 60% 30.30 in 10.0 mi NW 13.8 mph - N/A   Overcast
4:14 PM 37.4 °F 29.8 °F 24.8 °F 60% 30.31 in 10.0 mi NNW 11.5 mph - N/A   Overcast
4:34 PM 37.4 °F 30.3 °F 24.8 °F 60% 30.31 in 10.0 mi NNW 10.4 mph - N/A   Overcast
4:54 PM 35.6 °F 28.6 °F 24.8 °F 65% 30.31 in 10.0 mi NNW 9.2 mph - N/A   Overcast
5:14 PM 35.6 °F 28.6 °F 24.8 °F 65% 30.31 in 10.0 mi NW 9.2 mph - N/A   Overcast
5:35 PM 35.6 °F 28.6 °F 24.8 °F 65% 30.32 in 10.0 mi NNW 9.2 mph - N/A   Overcast
5:54 PM 35.6 °F 29.2 °F 23.0 °F 60% 30.32 in 10.0 mi NNW 8.1 mph - N/A   Overcast
6:14 PM 35.6 °F 30.7 °F 24.8 °F 65% 30.33 in 10.0 mi NNW 5.8 mph - N/A   Overcast
6:34 PM 35.6 °F 30.7 °F 23.0 °F 60% 30.34 in 10.0 mi NNW 5.8 mph - N/A   Overcast
6:54 PM 35.6 °F 28.6 °F 21.2 °F 56% 30.34 in 10.0 mi NNW 9.2 mph - N/A   Overcast
8:34 PM 33.8 °F 25.3 °F 19.4 °F 56% 30.37 in 10.0 mi WNW 11.5 mph - N/A   Overcast
8:54 PM 33.8 °F 25.8 °F 19.4 °F 56% 30.37 in 10.0 mi NW 10.4 mph - N/A   Overcast
9:14 PM 32.0 °F 26.4 °F 19.4 °F 60% 30.37 in 10.0 mi NW 5.8 mph - N/A   Overcast
9:34 PM 30.2 °F 26.7 °F 19.4 °F 64% 30.37 in 10.0 mi NNW 3.5 mph - N/A   Overcast
9:54 PM 30.2 °F - 19.4 °F 64% 30.37 in 10.0 mi Calm Calm - N/A   Overcast
10:14 PM 30.2 °F - 19.4 °F 64% 30.37 in 10.0 mi Calm Calm - N/A   Overcast
10:34 PM 30.2 °F 26.7 °F 17.6 °F 60% 30.37 in 10.0 mi WNW 3.5 mph - N/A   Overcast
10:54 PM 30.2 °F 24.3 °F 17.6 °F 60% 30.37 in 10.0 mi NW 5.8 mph - N/A   Mostly Cloudy
11:14 PM 30.2 °F 24.3 °F 17.6 °F 60% 30.37 in 10.0 mi NW 5.8 mph - N/A   Scattered Clouds
11:34 PM 28.4 °F 23.3 °F 19.4 °F 69% 30.37 in 10.0 mi NNW 4.6 mph - N/A   Scattered Clouds
11:54 PM 28.4 °F 23.3 °F 17.6 °F 64% 30.37 in 10.0 mi NNW 4.6 mph - N/A   Scattered Clouds